Flag for U.S.A. Weather past 2 weeks in Anderson, South Carolina, U.S.A.

Now
71 °F

Clear.


Feels Like: 67 °F
Forecast: 73 / 94 °F
Wind: No wind

Location: Anderson County Airport

Current Time: Aug 23, 2014 at 7:47:16 AM

Latest Report: Aug 23, 2014 at 6:56 AM


Visibility: 10 mi

Pressure: 29.94 "Hg

Humidity: 93%

Dew point: 69 °F

Location of AndersonLocation

Historic Weather in Anderson — Graph

°F

Anderson temperature yesterday

Maximum temperature yesterday: 96 °F (at 3:56 PM)
Minimum temperature yesterday: 70 °F (at 5:56 AM)
Average temperature yesterday: 83 °F

Past Weeks' High & Low Weather Summary

 TemperatureHumidityPressure
High96 °F (Aug 22, 3:56 PM)100% (Aug 9, 3:56 AM)30.14 "Hg (Aug 9, 3:56 AM)
Low63 °F (Aug 15, 5:56 AM)35% (Aug 21, 3:56 PM)29.78 "Hg (Aug 12, 5:56 PM)
Average77 °F75%29.97 "Hg
* Reported Aug 8 6:56 AM — Aug 23 6:56 AM, Anderson, Weather by CustomWeather, © 2014

Note: Actual official high and low records may vary slightly from our data, if they occured in-between our weather recording intervals... More about our weather records

Advertising

Anderson weather history for previous 24 hours

 ConditionsComfort  
Time TempWeatherWind HumidityBarometerVisibility
6:56 AM
Aug 23
71 °FClear.No wind93%29.94 "Hg10 mi
5:56 AM71 °FClear.No wind93%29.93 "Hg10 mi
4:56 AM72 °FClear.No wind91%29.92 "Hg10 mi
3:56 AM72 °FClear.No wind91%29.93 "Hg10 mi
2:56 AM75 °FClear.3 mph85%29.93 "Hg10 mi
1:56 AM77 °FClear.6 mph82%29.96 "Hg10 mi
12:56 AM78 °FClear.5 mph76%29.96 "Hg10 mi
11:56 PM
Aug 22
79 °FClear.5 mph74%29.97 "Hg10 mi
10:56 PM81 °FClear.6 mph69%29.96 "Hg10 mi
9:56 PM80 °FClear.No wind71%29.96 "Hg10 mi
8:56 PM85 °FSunny.5 mph59%29.96 "Hg10 mi
7:56 PM89 °FSunny.5 mph50%29.95 "Hg10 mi
6:56 PM93 °FSunny.8 mph44%29.95 "Hg10 mi
5:56 PM94 °FPassing clouds.3 mph43%29.96 "Hg10 mi
4:56 PM94 °FScattered clouds.7 mph43%29.96 "Hg10 mi
3:56 PM96 °FPassing clouds.8 mph38%29.98 "Hg10 mi
2:56 PM94 °FSunny.10 mph43%30.00 "Hg10 mi
1:56 PM93 °FScattered clouds.9 mph44%30.03 "Hg10 mi
12:56 PM91 °FSunny.12 mph49%30.04 "Hg10 mi
11:56 AM90 °FSunny.6 mph50%30.05 "Hg10 mi
10:56 AM88 °FSunny.6 mph57%30.06 "Hg10 mi
9:56 AM84 °FSunny.7 mph63%30.06 "Hg10 mi
8:56 AM79 °FSunny.5 mph77%30.06 "Hg10 mi
7:56 AM74 °FSunny.3 mph88%30.05 "Hg10 mi
Weather by CustomWeather, © 2014

See weather overviewHow to use our weather pages